Location: Albany
(42.6526°N, 73.7562°W)
Time: 21:28:26
(UTC+00:00)

Cosmos 1328 Rocket - Pass Details

Date: 19 November 2019
Orbit: 600 x 628 km, 82.5° (Epoch: 15 December)

Event Time Altitude Azimuth Distance (km) Brightness Sun altitude
Rises 22:18:45 0° 168° (SSE) 2,894 7.1 -9.3°
Reaches altitude 10° 22:21:04 10° 160° (SSE) 1,990 6.1 -9.7°
Maximum altitude 22:25:10 39° 92° (E) 937 4.0 -10.4°
Drops below altitude 10° 22:29:16 10° 24° (NNE) 1,991 5.8 -11.1°
Sets 22:31:36 0° 16° (NNE) 2,896 6.7 -11.5°
